| time (UTC) | temp C | wind direction | speed KPH | gust KPH | rain 1hr cm | rain 24hr cm | rain mn cm | humidity % | barometer mb |
| 20260505184605 | 23 | 0.0 | 0.0 | 0.00 | 0.00 | 0.00 | 62 | 1034.6 | |
| 20260505181604 | 23 | 0.0 | 0.0 | 0.00 | 0.00 | 0.00 | 61 | 1034.5 | |
| 20260505174604 | 24 | 0.0 | 0.0 | 0.00 | 0.00 | 0.00 | 53 | 1034.7 | |
| 20260505171604 | 23 | 0.0 | 0.0 | 0.00 | 0.00 | 0.00 | 57 | 1034.8 | |
| 20260505164604 | 23 | 0.0 | 0.0 | 0.00 | 0.00 | 0.00 | 59 | 1035.1 | |
| 20260505161604 | 23 | 0.0 | 0.0 | 0.00 | 0.00 | 0.00 | 62 | 1035.5 | |
| 20260505151604 | 22 | 0.0 | 0.0 | 0.00 | 0.00 | 0.00 | 66 | 1036.2 | |
| 20260505124605 | 21 | 0.0 | 0.0 | 0.00 | 0.00 | 0.00 | 71 | 1037.3 | |
| 20260505121604 | 21 | 0.0 | 0.0 | 0.00 | 0.00 | 0.00 | 71 | 1037.1 | |
| 20260505114604 | 21 | 0.0 | 0.0 | 0.00 | 0.00 | 0.00 | 70 | 1036.9 | |
| 20260505111604 | 21 | 0.0 | 0.0 | 0.00 | 0.00 | 0.00 | 70 | 1036.5 | |
| 20260505101605 | 21 | 0.0 | 0.0 | 0.00 | 0.00 | 0.00 | 70 | 1035.9 | |
| 20260505094604 | 21 | 0.0 | 0.0 | 0.00 | 0.00 | 0.00 | 70 | 1035.6 | |
| 20260505091604 | 21 | 0.0 | 0.0 | 0.00 | 0.00 | 0.00 | 70 | 1035.3 | |
| 20260505084604 | 21 | 0.0 | 0.0 | 0.00 | 0.00 | 0.00 | 70 | 1035.0 | |
| 20260505081605 | 21 | 0.0 | 0.0 | 0.00 | 0.00 | 0.00 | 70 | 1034.6 | |
| 20260505074605 | 21 | 0.0 | 0.0 | 0.00 | 0.00 | 0.00 | 71 | 1034.4 | |
| 20260505071604 | 21 | 0.0 | 0.0 | 0.00 | 0.00 | 0.00 | 71 | 1034.6 | |
| 20260505064604 | 21 | 0.0 | 0.0 | 0.00 | 0.00 | 0.00 | 71 | 1034.8 | |
| 20260505061604 | 21 | 0.0 | 0.0 | 0.00 | 0.00 | 0.00 | 71 | 1034.9 | |
| 20260505054604 | 21 | 0.0 | 0.0 | 0.00 | 0.00 | 0.00 | 71 | 1035.0 | |
| 20260505051604 | 21 | 0.0 | 0.0 | 0.00 | 0.00 | 0.00 | 71 | 1035.1 | |
| 20260505041604 | 21 | 0.0 | 0.0 | 0.00 | 0.00 | 0.00 | 71 | 1035.4 | |
| 20260505034604 | 21 | 0.0 | 0.0 | 0.00 | 0.00 | 0.00 | 72 | 1035.6 | |
| 20260505031604 | 21 | 0.0 | 0.0 | 0.00 | 0.00 | 0.00 | 72 | 1035.5 | |
| 20260505024604 | 21 | 0.0 | 0.0 | 0.00 | 0.00 | 0.00 | 72 | 1035.5 | |
| 20260505021604 | 21 | 0.0 | 0.0 | 0.00 | 0.00 | 0.00 | 71 | 1035.5 | |
| 20260505014604 | 21 | 0.0 | 0.0 | 0.00 | 0.00 | 0.00 | 70 | 1035.5 | |
| 20260505011604 | 21 | 0.0 | 0.0 | 0.00 | 0.00 | 0.00 | 71 | 1035.5 | |
| 20260505004605 | 21 | 0.0 | 0.0 | 0.00 | 0.00 | 0.00 | 71 | 1035.6 | |
| 20260505001604 | 21 | 0.0 | 0.0 | 0.00 | 0.00 | 0.00 | 72 | 1035.5 | |
| 20260504234604 | 21 | 0.0 | 0.0 | 0.00 | 0.00 | 0.00 | 71 | 1035.2 | |
| 20260504231604 | 21 | 0.0 | 0.0 | 0.00 | 0.00 | 0.00 | 72 | 1035.1 | |
| 20260504224604 | 21 | 0.0 | 0.0 | 0.00 | 0.00 | 0.00 | 73 | 1034.5 | |
| 20260504221604 | 21 | 0.0 | 0.0 | 0.00 | 0.00 | 0.00 | 72 | 1034.4 | |
| 20260504214604 | 21 | 0.0 | 0.0 | 0.00 | 0.00 | 0.00 | 71 | 1033.7 | |
| 20260504211605 | 21 | 0.0 | 0.0 | 0.00 | 0.00 | 0.00 | 71 | 1033.5 | |
| 20260504204604 | 21 | 0.0 | 0.0 | 0.00 | 0.00 | 0.00 | 70 | 1033.2 | |
| 20260504201604 | 22 | 0.0 | 0.0 | 0.00 | 0.00 | 0.00 | 71 | 1033.2 | |
| 20260504194605 | 22 | 0.0 | 0.0 | 0.00 | 0.00 | 0.00 | 69 | 1032.9 | |
| 20260504191604 | 22 | 0.0 | 0.0 | 0.00 | 0.00 | 0.00 | 61 | 1032.4 |